RH
32 78 88 69 54 71 65 57 42 36 31 43 52 56 57 50 36 26 39 51 74 77 68 30 39 42 30 42 11 10 10 9 9 9 9 4 2 2 2 2 2 2 2
30 47 42 80 58 51 79 72 52 44 34 33 42 63 55 56 46 44 49 44 62 74 56 37 35 30 31 39 22 14 13 9 8 9 10 4 2 2 2 2 2 3 3
50 55 44 60 71 70 60 78 94 72 54 35 37 44 69 66 55 47 42 53 54 57 54 53 33 34 28 25 31 18 10 8 8 10 11 4 2 2 2 2 2 3 4
8 31 28 42 51 64 86 72 67 89 91 52 34 42 51 72 71 50 34 26 29 38 56 66 38 31 11 10 21 18 7 7 10 12 13 6 2 2 2 2 2 3 4
6 6 9 38 58 52 47 83 75 60 79 94 79 46 44 50 68 86 42 25 21 21 29 53 39 22 11 7 13 13 6 7 11 14 13 12 2 2 2 2 2 3 5
6 7 7 12 25 40 59 54 75 78 72 60 89 93 78 52 55 79 93 69 36 27 24 25 18 18 12 7 9 11 6 6 11 14 13 13 6 2 2 2 2 3 4
4 4 4 6 10 21 28 40 60 66 80 81 71 85 83 84 66 60 68 80 76 50 46 45 14 9 8 10 7 10 5 6 12 14 14 14 13 3 2 2 2 3 4
8 6 4 4 4 6 10 19 30 41 60 69 82 84 81 77 68 73 70 66 69 63 56 55 26 15 8 9 8 8 5 7 12 15 15 13 14 10 2 2 3 3 4
23 18 14 10 6 4 4 5 10 21 32 45 53 57 60 70 75 69 74 79 66 59 53 50 50 29 23 11 10 8 7 7 12 15 15 14 13 12 6 2 3 3 4
24 26 28 28 19 14 8 5 4 5 10 34 42 45 43 48 56 74 75 63 62 46 43 40 42 48 44 29 12 9 8 6 12 16 16 14 13 14 11 3 2 3 3
24 25 26 26 29 31 26 17 12 7 4 5 18 43 50 47 46 48 56 71 67 56 37 30 25 36 32 46 35 18 10 6 8 15 16 16 14 14 10 9 3 2 3
29 29 29 29 30 29 30 32 31 20 14 8 4 7 29 49 54 57 56 56 68 73 59 27 17 15 25 25 45 41 22 12 7 10 16 17 16 15 14 7 6 3 2
22 22 27 33 37 36 35 35 35 36 35 21 13 6 4 15 39 50 58 59 57 76 89 64 32 23 21 24 25 40 43 17 14 8 10 17 17 16 14 14 6 4 2
17 21 23 24 30 36 40 43 40 40 42 44 32 19 10 5 8 33 52 59 64 62 76 91 81 35 17 20 28 34 41 43 17 16 8 11 18 18 17 14 9 5 3
7 7 9 14 20 25 31 38 47 47 44 44 46 39 28 14 7 6 27 42 58 70 64 83 99 88 43 20 20 30 34 45 44 24 15 8 14 19 18 19 24 18 4
8 7 6 6 6 8 14 25 32 42 51 49 45 44 45 36 20 9 6 13 24 49 81 100 93 96 93 49 27 28 31 34 49 44 29 11 9 17 20 22 30 29 17
8 7 6 6 6 7 6 9 17 26 36 47 53 48 44 48 39 25 12 6 7 10 92 86 97 96 98 92 78 49 39 34 29 56 37 26 10 11 19 24 28 18 12
7 8 7 6 7 9 13 11 12 19 24 31 41 50 52 47 43 41 30 15 9 7 8 39 97 91 96 95 96 83 56 42 32 48 52 30 14 9 14 21 24 19 13
6 6 6 7 8 10 12 15 15 17 20 22 27 36 46 52 48 41 40 34 19 12 8 28 16 94 96 99 96 96 94 93 60 42 58 46 22 11 9 15 22 22 17
5 5 5 5 6 7 10 11 14 17 18 16 15 22 32 42 50 48 42 41 36 22 12 10 46 33 96 96 96 97 94 98 98 67 58 70 34 17 10 10 16 23 21
4 4 4 4 4 4 5 7 9 12 14 14 14 12 17 26 39 47 48 43 39 39 24 13 13 85 83 96 96 96 95 97 96 82 72 68 66 27 14 10 10 18 22
4 4 4 4 4 4 4 4 4 6 8 10 11 10 11 13 20 34 44 48 43 40 43 24 13 15 19 25 86 95 96 96 98 94 63 53 66 66 30 13 10 10 18
4 4 4 4 4 4 4 4 4 4 5 6 7 8 8 10 11 16 29 43 47 44 46 43 24 14 14 29 76 95 97 94 97 92 92 52 48 78 73 40 16 10 10
11 12 12 10 10 9 8 5 4 4 4 4 5 6 6 7 8 10 12 24 41 47 47 52 44 18 17 25 98 94 97 97 96 93 97 96 78 50 80 80 51 25 11
18 17 16 15 15 14 14 13 10 6 5 4 4 4 5 6 6 8 9 10 20 39 47 50 53 43 24 20 96 76 94 97 97 96 97 97 94 61 50 70 80 64 35
27 26 24 23 23 21 18 15 12 12 9 6 5 5 5 5 5 6 7 8 9 18 39 49 52 55 36 34 50 74 98 94 94 97 97 97 98 91 58 49 63 73 74
Wind_Speed
24 24 24 24 25 24 24 24 23 23 22 22 21 21 21 19 18 17 16 14 16 15 16 17 16 15 14 14 12 11 10 10 9 8 6 6 8 8 11 15 18 20 20
21 24 25 23 27 27 28 26 26 26 26 26 25 21 23 22 21 20 18 17 17 16 17 17 17 16 15 16 14 13 12 13 13 11 8 7 9 9 13 17 18 20 20
19 23 24 22 24 26 25 27 28 28 27 28 27 25 24 23 24 22 21 20 19 18 18 19 19 18 18 18 18 15 14 15 15 13 11 10 11 12 14 18 21 21 19
19 22 22 23 23 24 25 24 26 30 28 28 29 28 27 26 24 24 23 23 22 21 20 21 20 20 20 20 20 18 16 17 17 15 13 11 12 13 16 20 23 23 20
19 21 21 21 25 24 25 28 24 27 32 29 26 29 29 29 28 26 24 24 24 23 22 22 22 22 21 20 22 20 18 18 18 16 14 12 13 14 18 23 24 23 21
21 22 25 25 26 28 28 29 29 30 28 31 32 27 28 30 32 30 27 26 27 26 26 25 24 24 23 21 23 22 20 21 20 18 16 14 14 15 18 23 25 26 23
23 24 25 27 29 29 29 29 29 30 33 33 32 32 29 30 32 34 32 29 30 28 29 27 25 25 26 24 24 25 24 23 22 20 19 16 15 16 18 23 26 27 25
30 31 31 30 30 31 31 29 30 33 33 34 37 37 37 33 30 34 35 33 33 31 30 29 28 26 27 27 25 27 27 27 25 22 21 19 18 18 19 23 27 28 27
35 35 37 37 37 37 36 35 33 32 34 36 36 37 37 39 39 32 35 36 36 35 34 33 30 28 28 28 29 28 30 30 27 25 23 22 22 21 21 22 28 29 29
42 43 42 42 42 43 42 42 41 39 37 36 37 38 40 39 39 41 41 35 39 38 37 37 35 33 31 29 31 30 31 32 31 28 26 24 24 24 23 24 26 30 31
47 47 48 49 49 49 48 47 47 46 44 43 40 39 40 41 41 40 42 44 38 40 41 41 40 38 37 34 32 31 32 34 34 32 28 26 26 27 25 27 27 30 32
52 53 53 54 54 55 55 54 52 51 50 49 47 45 43 41 40 40 41 41 41 44 42 44 43 42 40 39 37 33 33 35 35 35 33 30 28 29 30 30 30 30 33
56 58 59 60 60 59 59 59 58 57 55 54 52 51 49 47 44 42 41 41 41 42 47 44 46 45 43 42 42 40 35 36 37 38 37 34 31 30 31 31 34 33 33
57 59 61 64 64 64 64 63 63 62 60 58 58 56 54 53 50 47 44 42 41 40 41 46 51 49 49 46 46 44 42 38 39 40 40 39 35 33 33 36 35 35 34
58 60 62 64 65 67 69 69 67 66 65 64 62 61 59 58 55 53 51 48 42 45 44 42 49 55 50 49 48 47 46 44 40 42 42 42 40 37 35 38 39 39 36
63 63 64 66 67 68 70 72 73 72 69 68 67 65 63 62 61 59 57 55 50 47 49 50 57 52 57 52 49 50 49 47 45 42 44 44 44 41 39 38 34 32 35
65 66 69 69 70 71 72 74 76 76 76 74 71 69 67 66 65 64 62 61 58 56 44 54 56 56 61 54 51 49 49 49 48 46 45 47 45 45 42 41 37 35 32
70 69 71 74 75 76 77 79 80 80 79 79 77 75 73 70 69 68 67 66 65 63 63 64 54 45 49 45 51 49 53 51 50 50 47 48 47 47 46 44 42 35 33
78 78 79 78 80 81 81 84 86 86 83 80 80 80 78 76 74 73 71 70 70 69 67 64 64 45 45 51 48 53 54 51 52 53 51 50 50 48 48 47 45 38 37
86 87 88 87 85 86 87 85 87 90 88 83 80 81 82 80 79 77 76 75 75 75 73 68 68 67 41 41 41 52 52 50 54 58 55 52 52 49 48 49 48 43 41
92 92 92 92 89 87 88 92 91 89 91 89 84 82 82 82 81 81 80 79 79 79 79 73 73 55 74 46 37 45 57 58 57 61 56 55 52 50 50 50 50 47 44
97 95 92 91 92 91 88 89 93 94 94 92 89 85 83 83 84 82 83 83 82 83 83 79 76 70 70 65 60 44 51 52 60 60 59 57 56 51 50 49 49 49 48
86 85 83 82 82 83 86 87 90 93 96 96 93 90 86 85 86 85 84 86 86 86 86 84 81 73 72 68 61 54 62 65 57 61 63 58 57 54 48 48 48 48 51
63 60 59 58 58 60 66 73 80 87 93 95 98 93 88 88 88 88 87 87 88 89 89 87 84 79 76 76 61 64 43 53 55 62 51 60 58 55 51 49 48 49 48
49 48 48 47 47 46 47 52 59 69 81 91 93 99 93 89 90 90 90 90 90 91 91 91 88 84 81 77 57 63 59 41 41 53 53 61 59 56 54 51 50 49 50
47 47 48 47 46 45 44 44 46 49 59 73 86 90 97 91 91 91 92 93 93 92 93 94 92 88 87 81 73 72 63 69 50 48 53 55 56 55 52 52 53 53 50
Wind_Direction
250 259 261 262 261 256 246 244 244 246 247 246 246 244 243 237 240 235 240 238 240 238 243 238 238 237 237 228 233 230 237 232 230 216 218 202 188 184 177 173 166 161 159
259 260 257 258 266 264 270 263 252 248 249 248 246 246 246 244 241 241 240 238 238 237 239 237 237 238 241 235 234 243 243 225 223 219 218 210 198 191 185 180 174 166 163
266 260 256 253 257 265 262 271 271 265 257 249 249 246 248 249 247 245 241 240 238 236 235 233 233 237 243 242 237 242 240 224 214 216 215 211 201 196 189 183 180 176 170
262 266 267 265 262 263 270 267 269 274 264 261 257 253 249 250 248 245 243 244 243 241 238 234 235 240 246 245 236 236 236 216 206 210 213 214 206 198 193 189 187 181 179
260 263 265 268 270 267 265 266 265 273 276 272 262 258 251 251 251 243 240 241 243 245 244 241 236 240 245 245 236 233 227 216 208 210 211 216 211 203 197 194 194 187 188
274 274 266 258 259 261 261 264 261 255 265 273 275 264 263 252 250 251 247 239 242 241 243 244 240 239 242 243 233 231 222 214 210 213 218 214 217 210 203 200 195 194 194
276 273 270 271 265 261 260 259 260 257 255 255 263 270 268 264 257 254 249 241 240 240 240 241 242 242 241 242 233 228 222 215 211 215 227 219 222 217 209 203 200 200 200
274 273 272 269 266 266 261 256 257 258 258 259 262 263 260 263 262 260 256 250 244 244 242 240 241 242 244 240 237 228 223 218 215 217 224 226 224 225 214 209 205 206 205
275 272 271 268 266 265 267 265 258 253 254 254 253 255 257 257 262 261 260 258 252 247 246 245 244 245 244 244 241 234 224 221 221 222 223 226 226 228 224 215 212 211 210
277 277 276 272 269 266 264 264 263 262 258 255 254 252 252 252 252 254 258 256 255 251 249 250 247 245 247 246 244 239 230 224 225 225 227 227 229 227 229 222 217 214 214
275 273 272 273 273 270 266 264 263 260 259 257 255 253 251 251 251 250 250 253 254 254 250 249 248 246 244 245 246 243 236 229 228 229 229 232 233 232 225 231 221 218 217
273 272 271 270 269 269 269 267 263 261 259 256 256 254 253 252 250 250 250 251 250 250 252 249 249 247 245 245 245 243 240 235 230 230 231 233 235 235 229 231 227 222 220
273 270 270 269 269 268 267 266 264 262 259 258 255 254 253 252 252 248 248 249 251 251 248 248 247 247 244 242 243 243 240 237 234 231 232 234 236 238 237 235 230 223 221
276 275 272 270 268 266 265 265 264 262 260 256 254 253 252 251 250 249 247 247 252 253 254 251 248 246 242 240 239 239 239 237 235 233 232 232 234 239 242 239 239 228 225
277 275 274 273 271 269 267 263 262 260 259 257 255 252 250 250 249 248 248 248 249 247 252 257 251 248 244 240 240 239 237 236 236 233 233 231 231 235 241 244 242 237 227
278 276 273 272 271 270 268 267 264 260 258 256 254 252 250 248 247 247 247 247 246 251 248 243 255 247 244 240 239 241 238 237 234 234 233 233 231 231 237 242 234 239 235
276 275 274 271 267 265 265 265 263 261 260 256 253 251 249 247 246 245 245 246 246 246 246 245 247 235 243 241 235 237 239 238 235 234 233 233 232 230 231 239 240 238 238
280 274 268 267 265 262 259 258 259 260 257 256 254 251 248 245 245 243 243 243 245 244 245 248 255 254 245 247 244 235 239 242 238 236 233 234 233 231 232 234 238 237 240
281 277 274 268 264 263 259 256 256 257 259 254 252 252 249 247 243 243 242 241 242 243 244 243 249 251 241 245 237 244 234 238 238 236 233 233 233 232 231 234 237 235 235
281 278 274 270 265 260 259 258 256 255 257 256 252 249 249 246 244 241 240 240 240 242 241 241 238 244 233 245 242 233 242 246 235 236 232 232 233 232 231 232 235 235 235
284 280 277 274 269 263 257 255 254 252 254 254 252 250 246 246 244 242 240 238 239 240 241 240 240 237 250 244 244 242 249 248 233 226 230 228 230 232 232 232 232 233 234
284 281 277 274 270 266 260 254 252 252 250 251 250 248 246 243 243 241 239 238 237 238 240 239 239 235 241 246 245 250 239 240 225 230 228 227 228 229 231 232 233 232 233
288 284 281 278 274 268 263 257 252 250 249 247 248 247 243 242 240 240 238 237 237 236 238 240 238 237 237 238 245 252 240 238 221 234 231 226 227 227 227 230 232 233 233
290 289 288 284 279 274 268 262 256 249 247 248 245 245 243 240 238 237 237 236 235 236 236 238 239 236 234 235 237 241 243 224 211 231 230 225 225 228 227 228 230 233 234
296 294 292 289 287 282 275 271 264 256 249 246 245 245 242 240 238 236 235 235 234 234 235 237 237 235 237 231 229 234 238 220 230 229 237 226 221 222 227 228 230 232 233
299 296 294 293 290 287 283 275 271 264 256 251 246 243 244 240 237 235 233 233 234 232 233 235 236 235 233 232 225 232 234 241 253 245 245 232 226 219 222 226 229 231 233